TimeAKDT,TemperatureF,Dew PointF,Humidity,Sea Level PressureIn,VisibilityMPH,Wind Direction,Wind SpeedMPH,Gust SpeedMPH,PrecipitationIn,Events,Conditions,WindDirDegrees,DateUTC
12:53 AM,41.0,36.0,82,29.62,10.0,NE,9.2,-,N/A,Rain,Light Rain,50,2013-10-28 08:53:00
1:53 AM,41.0,36.0,82,29.55,10.0,NE,8.1,-,N/A,Rain,Light Rain,40,2013-10-28 09:53:00
2:53 AM,39.9,36.0,86,29.52,10.0,NNE,6.9,-,N/A,,Overcast,20,2013-10-28 10:53:00
3:53 AM,42.1,36.0,79,29.47,10.0,NNE,10.4,-,N/A,,Overcast,20,2013-10-28 11:53:00
4:53 AM,41.0,36.0,82,29.40,10.0,NE,6.9,-,N/A,,Overcast,50,2013-10-28 12:53:00
5:53 AM,43.0,36.0,76,29.37,10.0,NNE,4.6,-,N/A,,Overcast,30,2013-10-28 13:53:00
6:53 AM,43.0,35.1,74,29.32,10.0,ENE,3.5,-,N/A,,Mostly Cloudy,60,2013-10-28 14:53:00
7:53 AM,46.0,36.0,68,29.30,10.0,North,4.6,-,N/A,,Mostly Cloudy,360,2013-10-28 15:53:00
8:53 AM,43.0,36.0,76,29.27,10.0,North,5.8,-,N/A,,Mostly Cloudy,360,2013-10-28 16:53:00
9:53 AM,39.9,34.0,79,29.26,10.0,NNE,4.6,-,N/A,,Mostly Cloudy,30,2013-10-28 17:53:00
10:53 AM,42.1,35.1,76,29.23,10.0,NNE,4.6,-,N/A,,Mostly Cloudy,20,2013-10-28 18:53:00
11:53 AM,42.1,36.0,79,29.21,10.0,Calm,Calm,-,N/A,,Mostly Cloudy,0,2013-10-28 19:53:00
12:53 PM,46.0,37.0,71,29.16,10.0,NNE,6.9,-,N/A,,Overcast,20,2013-10-28 20:53:00
1:53 PM,48.9,37.0,64,29.12,10.0,Calm,Calm,-,N/A,,Overcast,0,2013-10-28 21:53:00
2:53 PM,46.9,37.9,71,29.08,10.0,NE,6.9,-,N/A,,Overcast,40,2013-10-28 22:53:00
3:53 PM,48.0,37.9,68,29.02,10.0,NE,8.1,-,N/A,,Mostly Cloudy,50,2013-10-28 23:53:00
4:53 PM,44.1,36.0,73,29.05,10.0,SSW,6.9,-,N/A,,Mostly Cloudy,210,2013-10-29 00:53:00
5:53 PM,41.0,36.0,82,29.05,10.0,North,3.5,-,N/A,,Mostly Cloudy,10,2013-10-29 01:53:00
6:53 PM,41.0,36.0,82,29.09,10.0,SSW,5.8,-,N/A,,Mostly Cloudy,200,2013-10-29 02:53:00
7:53 PM,39.9,35.1,83,29.14,10.0,WSW,9.2,-,N/A,,Mostly Cloudy,250,2013-10-29 03:53:00
8:53 PM,39.0,34.0,82,29.17,10.0,SSW,6.9,-,N/A,Rain,Light Rain,210,2013-10-29 04:53:00
9:53 PM,39.9,36.0,86,29.21,10.0,WSW,9.2,-,N/A,Rain,Light Rain,240,2013-10-29 05:53:00
10:53 PM,39.9,36.0,86,29.24,10.0,SSW,5.8,-,N/A,Rain,Light Rain,210,2013-10-29 06:53:00
11:53 PM,39.0,36.0,89,29.25,10.0,South,5.8,-,N/A,Rain,Light Rain,190,2013-10-29 07:53:00